| time (UTC) | temp F | wind direction | speed MPH | gust MPH | rain 1hr in | rain 24hr in | rain mn in | humidity % | barometer mb |
| 20260508091605 | 42 | 360 | 6.0 | 8.0 | 0.00 | 0.00 | 0.00 | 81 | 1025.1 |
| 20260508090105 | 42 | 360 | 6.0 | 9.0 | 0.00 | 0.00 | 0.00 | 80 | 1025.0 |
| 20260508084612 | 42 | 360 | 7.0 | 9.0 | 0.00 | 0.00 | 0.00 | 82 | 1025.0 |
| 20260508083030 | 41 | 360 | 6.0 | 9.0 | 0.00 | 0.00 | 0.00 | 84 | 1024.9 |
| 20260508081501 | 41 | 360 | 6.0 | 9.0 | 0.00 | 0.00 | 0.00 | 85 | 1024.8 |
| 20260508080010 | 41 | 360 | 8.0 | 11.0 | 0.00 | 0.00 | 0.00 | 86 | 1024.7 |
| 20260508074610 | 41 | 360 | 8.0 | 11.0 | 0.00 | 0.00 | 0.00 | 86 | 1024.6 |
| 20260508073012 | 40 | 360 | 10.0 | 13.0 | 0.00 | 0.00 | 0.00 | 86 | 1024.5 |
| 20260508071501 | 41 | 360 | 8.0 | 11.0 | 0.00 | 0.00 | 0.00 | 86 | 1024.3 |
| 20260508070105 | 41 | 360 | 5.0 | 7.0 | 0.00 | 0.00 | 0.00 | 85 | 1023.9 |
| 20260508064611 | 41 | 360 | 4.0 | 7.0 | 0.00 | 0.00 | 0.00 | 86 | 1023.8 |
| 20260508063101 | 41 | 360 | 4.0 | 6.0 | 0.00 | 0.00 | 0.00 | 86 | 1023.6 |
| 20260508061603 | 41 | 215 | 3.0 | 7.0 | 0.00 | 0.00 | 0.00 | 87 | 1023.4 |
| 20260508060120 | 40 | 223 | 7.0 | 8.0 | 0.00 | 0.00 | 0.00 | 88 | 1023.2 |
| 20260508054511 | 41 | 360 | 5.0 | 8.0 | 0.00 | 0.00 | 0.00 | 86 | 1023.0 |
| 20260508053110 | 41 | 360 | 2.0 | 5.0 | 0.00 | 0.00 | 0.00 | 87 | 1022.9 |
| 20260508051510 | 40 | 360 | 5.0 | 6.0 | 0.00 | 0.00 | 0.00 | 86 | 1022.7 |
| 20260508050111 | 41 | 360 | 2.0 | 4.0 | 0.00 | 0.00 | 0.00 | 86 | 1022.5 |
| 20260508044502 | 40 | 360 | 2.0 | 5.0 | 0.00 | 0.00 | 0.00 | 86 | 1022.4 |
| 20260508043102 | 40 | 360 | 1.0 | 5.0 | 0.00 | 0.00 | 0.00 | 88 | 1022.1 |
| 20260508041605 | 40 | 262 | 2.0 | 4.0 | 0.00 | 0.00 | 0.00 | 88 | 1022.1 |
| 20260508040010 | 39 | 360 | 2.0 | 5.0 | 0.00 | 0.00 | 0.00 | 88 | 1021.8 |
| 20260508034510 | 39 | 360 | 3.0 | 8.0 | 0.00 | 0.00 | 0.00 | 89 | 1021.6 |
| 20260508033001 | 39 | 360 | 2.0 | 6.0 | 0.00 | 0.00 | 0.00 | 89 | 1021.6 |
| 20260508031609 | 39 | 360 | 4.0 | 7.0 | 0.00 | 0.00 | 0.00 | 88 | 1021.3 |
| 20260508030131 | 39 | 282 | 5.0 | 7.0 | 0.00 | 0.00 | 0.00 | 89 | 1021.2 |
| 20260508024606 | 39 | 360 | 4.0 | 8.0 | 0.00 | 0.00 | 0.00 | 89 | 1021.0 |
| 20260508023102 | 39 | 360 | 5.0 | 8.0 | 0.00 | 0.00 | 0.00 | 88 | 1020.9 |
| 20260508021512 | 39 | 360 | 4.0 | 7.0 | 0.00 | 0.00 | 0.00 | 88 | 1020.8 |
| 20260508020110 | 39 | 360 | 5.0 | 9.0 | 0.00 | 0.00 | 0.00 | 88 | 1020.7 |
| 20260508014601 | 39 | 360 | 5.0 | 8.0 | 0.00 | 0.00 | 0.00 | 88 | 1020.6 |
| 20260508013003 | 39 | 360 | 4.0 | 9.0 | 0.00 | 0.00 | 0.00 | 88 | 1020.5 |
| 20260508011501 | 39 | 360 | 5.0 | 8.0 | 0.00 | 0.00 | 0.00 | 88 | 1020.3 |
| 20260508010003 | 39 | 360 | 3.0 | 7.0 | 0.00 | 0.00 | 0.00 | 87 | 1020.2 |
| 20260508004540 | 39 | 360 | 3.0 | 6.0 | 0.00 | 0.00 | 0.00 | 88 | 1020.0 |
| 20260508003002 | 39 | 360 | 4.0 | 7.0 | 0.00 | 0.00 | 0.00 | 88 | 1019.9 |
| 20260508001601 | 39 | 360 | 4.0 | 8.0 | 0.00 | 0.00 | 0.00 | 88 | 1019.8 |
| 20260508000002 | 40 | 360 | 5.0 | 9.0 | 0.00 | 0.00 | 0.00 | 88 | 1019.6 |
| 20260507234611 | 40 | 249 | 5.0 | 9.0 | 0.00 | 0.00 | 0.00 | 87 | 1019.6 |
| 20260507233001 | 40 | 360 | 6.0 | 10.0 | 0.00 | 0.00 | 0.00 | 90 | 1019.3 |
| 20260507231617 | 39 | 236 | 6.0 | 10.0 | 0.00 | 0.00 | 0.00 | 92 | 1019.2 |
| 20260507230003 | 39 | 360 | 5.0 | 9.0 | 0.00 | 0.00 | 0.00 | 92 | 1019.1 |
| 20260507224504 | 39 | 360 | 9.0 | 11.0 | 0.00 | 0.00 | 0.00 | 92 | 1019.0 |
| 20260507223001 | 39 | 360 | 6.0 | 11.0 | 0.00 | 0.00 | 0.00 | 91 | 1018.9 |
| 20260507221601 | 39 | 360 | 7.0 | 10.0 | 0.00 | 0.00 | 0.00 | 92 | 1018.8 |
| 20260507220011 | 40 | 360 | 5.0 | 8.0 | 0.00 | 0.00 | 0.00 | 90 | 1018.7 |
| 20260507214502 | 40 | 360 | 6.0 | 9.0 | 0.00 | 0.00 | 0.00 | 90 | 1018.6 |
| 20260507213013 | 40 | 360 | 7.0 | 10.0 | 0.00 | 0.00 | 0.00 | 90 | 1018.5 |
| 20260507211601 | 39 | 360 | 7.0 | 11.0 | 0.00 | 0.00 | 0.00 | 90 | 1018.4 |
| 20260507210011 | 38 | 360 | 6.0 | 8.0 | 0.00 | 0.00 | 0.00 | 92 | 1018.2 |
| 20260507204510 | 38 | 360 | 3.0 | 5.0 | 0.00 | 0.00 | 0.00 | 89 | 1018.0 |
| 20260507203101 | 39 | 360 | 3.0 | 6.0 | 0.00 | 0.00 | 0.00 | 89 | 1017.8 |
| 20260507201502 | 39 | 360 | 6.0 | 8.0 | 0.00 | 0.00 | 0.00 | 89 | 1017.6 |
| 20260507194602 | 39 | 360 | 4.0 | 7.0 | 0.00 | 0.00 | 0.00 | 90 | 1017.4 |
| 20260507193111 | 38 | 360 | 4.0 | 8.0 | 0.00 | 0.00 | 0.00 | 91 | 1017.4 |
| 20260507191512 | 38 | 360 | 5.0 | 12.0 | 0.00 | 0.00 | 0.00 | 91 | 1017.3 |
| 20260507190105 | 38 | 360 | 8.0 | 11.0 | 0.00 | 0.00 | 0.00 | 91 | 1017.2 |
| 20260507184502 | 38 | 360 | 9.0 | 12.0 | 0.00 | 0.00 | 0.00 | 91 | 1017.0 |
| 20260507183017 | 38 | 360 | 8.0 | 14.0 | 0.00 | 0.00 | 0.00 | 90 | 1017.0 |
| 20260507181501 | 39 | 360 | 8.0 | 14.0 | 0.00 | 0.00 | 0.00 | 88 | 1016.9 |
| 20260507180001 | 39 | 360 | 9.0 | 13.0 | 0.00 | 0.00 | 0.00 | 85 | 1016.8 |
| 20260507174601 | 39 | 360 | 5.0 | 11.0 | 0.00 | 0.00 | 0.00 | 86 | 1016.7 |
| 20260507173001 | 39 | 360 | 8.0 | 14.0 | 0.00 | 0.00 | 0.00 | 84 | 1016.4 |
| 20260507171511 | 40 | 360 | 9.0 | 16.0 | 0.00 | 0.00 | 0.00 | 80 | 1016.4 |
| 20260507170015 | 41 | 360 | 10.0 | 15.0 | 0.00 | 0.00 | 0.00 | 80 | 1016.3 |
| 20260507164603 | 42 | 360 | 5.0 | 11.0 | 0.00 | 0.00 | 0.00 | 78 | 1016.1 |
| 20260507163003 | 43 | 360 | 6.0 | 10.0 | 0.00 | 0.00 | 0.00 | 74 | 1015.8 |
| 20260507161502 | 43 | 360 | 6.0 | 10.0 | 0.00 | 0.00 | 0.00 | 73 | 1015.7 |
| 20260507160014 | 43 | 360 | 4.0 | 8.0 | 0.00 | 0.00 | 0.00 | 75 | 1015.6 |
| 20260507154502 | 44 | 360 | 2.0 | 7.0 | 0.00 | 0.00 | 0.00 | 76 | 1015.5 |
| 20260507153002 | 45 | 360 | 1.0 | 6.0 | 0.00 | 0.00 | 0.00 | 75 | 1015.3 |
| 20260507151513 | 44 | 360 | 2.0 | 7.0 | 0.00 | 0.00 | 0.00 | 78 | 1015.2 |
| 20260507150002 | 42 | 338 | 5.0 | 10.0 | 0.00 | 0.00 | 0.00 | 81 | 1015.2 |
| 20260507144502 | 43 | 360 | 5.0 | 11.0 | 0.00 | 0.00 | 0.00 | 79 | 1015.2 |
| 20260507143103 | 42 | 360 | 5.0 | 11.0 | 0.00 | 0.00 | 0.00 | 81 | 1015.2 |
| 20260507141511 | 42 | 360 | 7.0 | 11.0 | 0.00 | 0.00 | 0.00 | 81 | 1015.0 |
| 20260507140125 | 42 | 360 | 7.0 | 12.0 | 0.00 | 0.00 | 0.00 | 81 | 1014.9 |
| 20260507134604 | 42 | 360 | 5.0 | 11.0 | 0.00 | 0.00 | 0.00 | 80 | 1014.9 |
| 20260507133012 | 42 | 360 | 7.0 | 10.0 | 0.00 | 0.00 | 0.00 | 79 | 1014.9 |
| 20260507131513 | 42 | 360 | 3.0 | 11.0 | 0.00 | 0.00 | 0.00 | 81 | 1014.9 |
| 20260507130012 | 41 | 360 | 5.0 | 10.0 | 0.00 | 0.00 | 0.00 | 81 | 1015.2 |
| 20260507124616 | 41 | 360 | 7.0 | 13.0 | 0.00 | 0.00 | 0.00 | 83 | 1015.0 |
| 20260507123110 | 42 | 360 | 9.0 | 14.0 | 0.00 | 0.00 | 0.00 | 83 | 1015.0 |
| 20260507121513 | 41 | 360 | 4.0 | 10.0 | 0.00 | 0.00 | 0.00 | 85 | 1015.1 |
| 20260507114501 | 40 | 360 | 5.0 | 11.0 | 0.00 | 0.00 | 0.00 | 85 | 1015.1 |
| 20260507113103 | 41 | 360 | 5.0 | 10.0 | 0.00 | 0.00 | 0.00 | 84 | 1015.3 |
| 20260507111603 | 41 | 360 | 7.0 | 12.0 | 0.00 | 0.00 | 0.00 | 84 | 1015.1 |
| 20260507110016 | 40 | 360 | 7.0 | 14.0 | 0.00 | 0.00 | 0.00 | 84 | 1015.1 |
| 20260507104602 | 41 | 360 | 8.0 | 13.0 | 0.00 | 0.00 | 0.00 | 82 | 1015.2 |
| 20260507103002 | 41 | 360 | 9.0 | 12.0 | 0.00 | 0.00 | 0.00 | 85 | 1015.4 |
| 20260507101503 | 40 | 360 | 9.0 | 16.0 | 0.00 | 0.00 | 0.00 | 86 | 1015.4 |
| 20260507094502 | 40 | 360 | 8.0 | 14.0 | 0.00 | 0.00 | 0.00 | 88 | 1015.5 |
| 20260507093032 | 39 | 360 | 12.0 | 16.0 | 0.00 | 0.00 | 0.00 | 88 | 1015.4 |